Showing default

YAOGAN-39 02B, 57889

Orbit data source: Space-Track

YAOGAN-39 02B, 57889 is a payload satellite owned by PLA GAD (CN) in LEO that was launched on Sun, 17 Sep 2023 UTC via a CHANG ZHENG 2D launch vehicle from the Xichang Space Center, China (XSC). Payload-class satellites include a variety of spacecraft equipped with specific instruments for various scientific and technological missions. These include communications satellites like Starlink; space stations such as the ISS; scientific satellites like the Hubble; Earth observation satellites from companies like Planet Labs, Umbra, and HawkEye 360; GPS; miniature CubeSats for education and research; and military/defense satellites.

Loading next visibility...
Identifier
57889, 2023-145D
Orbit
LEO
Country
Flag of CNCN / PRC
Related business
Manufacturer
SAST
Mission
Operational Defense Sigint
Bus & Motor
Unknown
Mass
~300 kg wet, ~300 kg dry
Launch date (UTC)
2023-09-17 (3 years ago)
Launch vehicle
CHANG ZHENG 2D
Launch site
Xichang Space Center, China (XSC)
Object type
Payload
Rocket body
Debris
Shape & HBR
Box + 2 Pan, 2.5 m
Radar Cross Section
11.063 m², Large (>1 m²)

Expand to show TLE details & history
Last TLE update: 23 hours ago

TLE from 23 hours ago
0 YAOGAN-39 02B
1 57889U 23145D   26172.49286657  .00002863  00000-0  13959-3 0  9996
2 57889  34.9892 197.3296 0002832  95.4869 264.6167 15.17906147153548
Epoch: 2026-06-21T11:49Z
TLE epoch observation values (Epoch: 2026-06-21T11:49:43.671Z)
Latitude
-0.00002°
Longitude
110.20526°
Altitude
511.262 km
Speed
7.61 km/s
True Right ascension
13h 09m 19s
True Declination
0° 00' 00"
Sunlit
Object was in daylight at epoch
Visualization orbit readout
Latitude
Unknown
Longitude
Unknown
Altitude
Unknown
Speed
Unknown
Apparent Right ascension
Unknown
Apparent Declination
Unknown
Sunlit
N/A
Visualization observer readout
Local Sidereal Time
21:26:49
Azimuth
Unknown
Elevation
Unknown
Doppler factor
Unknown
Orbital elements
Apogee altitude
517.367 km
Perigee altitude
513.462 km
Semi-major axis
6,893.551 km
Eccentricity
0.00028
Inclination
34.9892°
RAAN
197.3296°
Arg. of periapsis
95.4869°
True anomaly
264.58439°
Mean anomaly
264.6167°
Eccentric anomaly
264.60055°
Mean motion
3.79209 °/min
Orbital period
94.93 mins
BSTAR
0.00013959
Loading maneuver chart data...
Computing Atmospheric mass density...
Loading historical data...
Loading historical data...
Loading historical data...
Loading historical data...
Loading historical data...
Loading historical data...
Loading historical data...
Other satellites on launch #145 in the year 2023 (2023-09-17 UTC)

Documentation

Showing up to 5 results
|